GFSNE_250_spd_078.txt.gz
Wind_Speed
57 56 55 54 54 54 55 55 52 51 49 60 64 67 67 66 66 67 67 69 72 77 78 77 75 66 64 61 58 56 52 52 51 51 53 53 54 54
57 58 56 55 54 56 56 58 57 53 51 56 60 64 67 68 68 69 71 76 75 74 69 66 64 61 58 54 53 52 54 54 55 57 58 59 60 61
52 56 57 57 59 56 57 60 62 62 61 63 61 64 67 70 73 73 68 65 63 63 64 61 59 55 54 54 55 55 57 58 59 62 63 64 66 67
27 32 36 40 43 49 54 56 55 57 58 58 60 58 59 61 60 59 58 58 57 57 58 57 57 57 58 61 62 64 62 61 64 66 66 67 70 70
26 31 34 32 34 35 36 36 39 39 40 39 42 47 50 52 53 53 55 55 54 56 57 59 60 63 65 65 65 64 67 69 70 72 74 73 73 76
30 30 30 30 33 36 36 38 41 42 45 45 44 46 49 54 53 57 58 60 60 62 62 64 66 67 66 66 69 72 74 75 75 77 79 79 79 81
40 41 41 39 37 38 39 38 40 39 41 45 46 47 50 54 57 59 59 64 62 63 64 64 68 69 69 71 73 76 79 80 81 83 82 81 82 83
48 49 51 49 49 46 45 47 46 45 45 46 43 44 49 55 57 56 62 66 66 75 70 69 73 73 74 76 78 80 81 80 83 81 83 85 90 90
52 53 55 54 55 57 56 56 57 57 55 53 53 55 54 56 59 63 63 67 69 73 79 79 79 78 78 81 82 84 85 83 83 88 89 92 91 91
60 58 56 58 62 61 63 67 65 64 59 63 63 62 61 62 65 66 64 67 70 73 77 79 80 86 86 85 85 83 83 87 87 88 90 93 90 99
67 64 64 65 65 64 65 66 69 67 62 68 70 68 70 70 72 73 72 74 78 78 81 84 84 87 89 89 88 86 91 91 92 96 99 100 98 105
73 74 74 75 72 69 67 75 76 77 77 75 76 79 76 79 84 72 78 87 92 89 88 88 88 93 95 97 96 95 97 99 105 104 100 104 105 108
81 80 79 79 77 75 74 78 79 80 79 80 85 86 90 90 85 87 90 93 93 100 92 98 97 100 98 100 105 107 108 108 104 104 105 110 112 113
81 83 82 85 85 81 79 82 82 86 85 89 89 93 96 98 96 97 98 98 105 106 103 101 106 106 105 110 118 119 117 112 111 118 118 119 120 119
85 87 91 91 88 86 85 87 86 88 94 94 97 100 104 106 105 106 104 110 110 113 113 110 109 116 115 116 120 121 121 124 123 120 126 130 130 126
94 99 97 97 96 97 95 93 96 96 97 100 103 107 111 111 112 114 119 121 119 117 120 122 115 121 123 125 128 129 130 129 128 132 133 136 130 124
98 101 99 99 101 100 99 99 102 106 107 107 109 112 115 118 122 126 129 125 124 123 123 122 122 121 124 127 132 135 135 136 139 138 133 129 131 127
106 100 97 98 100 104 107 108 109 112 115 116 118 120 121 126 132 135 134 134 131 130 128 128 129 131 134 136 139 142 141 138 135 133 129 125 124 123
101 100 103 106 109 111 112 114 116 118 119 121 124 128 130 133 133 134 134 135 136 138 137 139 137 135 134 134 131 132 133 131 126 125 121 118 115 109
110 112 113 115 118 120 121 121 122 121 123 124 127 128 128 126 125 124 124 125 127 128 129 129 128 126 127 128 131 125 115 116 115 113 108 107 105 101
115 113 112 111 109 110 110 110 111 112 113 115 115 115 115 115 115 115 114 115 116 117 117 118 116 114 113 113 113 113 112 107 105 103 101 99 99 97
105 106 107 106 106 106 105 105 104 105 104 104 104 104 104 103 103 103 103 104 104 105 106 106 106 105 104 104 103 101 101 103 101 98 94 89 88 90
104 104 104 101 99 99 98 97 96 96 95 96 96 96 96 97 97 97 97 97 97 97 98 98 99 98 97 96 96 95 92 90 91 94 94 86 82 81

GFSNE_250_spd_084.txt.gz
Wind_Speed
63 63 60 58 60 62 64 65 66 67 66 66 65 63 60 59 58 61 63 61 62 61 64 66 66 67 70 73 71 71 67 66 62 57 56 49 46 45
66 66 65 65 66 69 69 72 73 68 66 67 69 67 68 69 68 67 65 65 65 65 69 71 71 73 74 76 79 68 61 54 55 52 49 49 50 52
71 72 72 73 76 77 77 76 77 77 74 76 75 74 75 72 73 71 69 69 71 72 73 75 77 77 74 68 63 57 54 52 51 52 53 52 52 53
70 74 72 68 61 64 71 73 67 72 78 77 77 77 78 76 75 73 70 72 71 70 68 66 63 59 56 56 55 53 54 54 51 51 54 54 55 58
70 70 68 65 63 62 59 54 52 52 51 50 51 53 53 54 55 56 57 58 59 59 60 61 60 59 57 57 56 56 57 56 58 59 58 58 61 63
40 39 39 41 43 43 44 46 46 45 44 42 44 47 47 52 51 53 54 56 55 57 57 59 60 61 62 59 57 58 58 60 63 62 63 62 60 60
43 44 45 47 48 50 51 52 52 52 52 52 53 54 57 59 59 60 57 61 63 65 64 67 68 69 69 70 69 69 68 68 66 66 70 69 64 61
50 49 50 50 54 56 57 59 60 58 57 58 59 60 60 61 65 67 67 69 69 74 74 76 75 76 78 78 77 76 75 77 77 76 77 68 69 73
55 57 57 58 59 60 62 63 64 64 64 64 64 65 66 67 71 74 75 77 78 77 78 80 83 85 85 85 85 84 85 85 85 82 83 84 82 79
57 60 63 65 66 66 68 69 70 71 68 67 70 68 68 69 71 72 74 77 79 80 79 79 83 86 90 91 90 88 90 94 94 95 95 92 93 91
60 63 66 69 70 72 75 76 76 76 72 72 74 74 76 76 76 78 79 80 80 83 83 85 85 86 85 91 96 100 101 98 99 97 98 100 100 101
69 72 74 75 74 75 78 77 77 76 78 80 81 81 82 83 83 85 86 87 89 90 91 93 94 95 99 99 98 99 101 102 103 104 104 105 103 103
74 74 73 74 76 80 80 80 81 83 84 86 88 89 90 92 93 93 94 96 97 95 98 101 103 105 107 104 106 107 107 108 108 109 111 112 111 111
80 78 77 78 82 83 85 87 88 91 92 93 94 97 99 101 102 102 103 102 103 106 106 108 113 115 119 120 118 120 119 117 115 115 115 115 115 115
85 84 84 86 89 92 91 92 96 97 98 99 100 103 105 107 110 111 112 113 107 106 112 117 120 122 125 127 127 123 123 123 122 121 120 121 121 122
90 94 95 97 97 101 103 104 105 102 101 103 105 105 107 111 114 114 113 113 116 120 125 127 129 130 128 126 125 123 122 121 122 125 127 129 130 133
98 100 99 101 103 102 103 103 102 102 104 109 111 112 112 111 112 114 117 122 125 129 133 135 134 132 131 131 129 127 127 128 128 129 130 131 132 133
103 106 109 110 112 109 106 106 107 111 112 112 114 118 119 120 120 122 126 130 131 131 130 131 130 127 125 122 122 120 121 122 122 122 122 122 122 123
116 116 114 113 114 116 117 117 119 120 121 122 123 122 122 123 125 124 124 126 126 122 120 119 117 116 116 116 114 117 117 116 115 115 114 114 113 114
121 119 121 121 119 118 121 121 122 123 123 123 123 123 122 121 119 116 114 115 114 113 111 110 109 109 108 107 107 106 104 103 100 100 99 97 95 95
125 125 125 125 127 127 124 123 122 121 120 118 117 115 112 112 111 109 107 107 106 104 102 100 98 97 96 95 94 94 92 89 89 88 87 86 86 88
132 131 131 127 123 122 122 119 117 114 113 111 109 107 106 105 103 101 99 97 96 95 94 93 92 91 90 90 89 89 91 91 88 87 87 86 86 87
128 125 123 121 117 113 112 110 108 106 105 103 102 100 99 97 94 94 94 93 92 91 90 89 89 88 89 88 88 87 87 88 87 84 81 78 78 77

GFSNE_250_spd_087.txt.gz
Wind_Speed
55 54 48 51 54 57 59 63 67 68 65 64 62 65 67 68 72 74 73 70 66 66 68 67 72 74 70 66 66 67 68 72 74 74 74 76 72 70
53 55 54 57 62 61 62 65 66 65 65 69 71 74 77 78 76 78 76 71 71 73 71 72 68 69 70 69 71 72 75 78 79 81 78 69 59 56
56 58 61 66 66 66 68 70 70 71 73 76 78 82 86 83 77 75 72 72 70 72 73 73 76 78 79 79 79 78 77 75 71 67 63 62 62 57
64 65 64 65 65 65 66 68 76 76 82 85 87 81 80 76 70 68 65 62 62 64 66 68 69 68 67 65 62 61 62 63 64 65 65 64 67 63
68 70 70 71 72 75 83 83 84 76 73 70 68 60 56 54 53 53 55 56 57 58 60 62 63 64 63 62 59 60 60 62 62 62 65 66 66 62
70 74 76 79 77 62 58 61 55 53 51 49 50 54 54 57 55 56 57 59 60 62 63 65 67 67 62 64 66 65 67 67 68 70 71 72 73 75
57 62 63 59 59 60 63 59 55 53 53 55 57 58 60 63 66 67 66 68 70 70 71 73 74 75 72 72 75 75 78 78 77 76 77 78 79 80
47 50 52 53 55 56 57 58 57 59 61 62 64 65 67 70 72 73 73 73 74 74 74 77 76 77 77 77 78 80 80 81 81 80 80 79 78 81
54 58 61 62 63 64 65 67 66 67 68 70 72 72 72 72 73 76 78 78 78 77 79 80 81 82 83 83 83 82 82 81 79 84 85 84 84 84
59 59 61 63 66 67 70 71 70 71 75 77 79 78 79 78 80 82 83 82 82 82 83 85 84 86 86 86 88 87 87 89 90 91 91 92 92 92
62 64 65 66 68 70 72 72 73 73 77 81 83 83 83 85 84 84 83 83 84 88 90 92 94 95 94 96 97 96 98 98 98 98 97 100 102 103
68 70 70 71 71 71 73 75 78 82 84 86 85 82 84 85 88 89 89 90 92 94 97 99 100 102 103 105 107 107 107 107 108 107 107 110 111 110
73 73 73 73 76 76 81 84 84 90 87 89 91 90 90 91 93 94 97 99 100 103 105 107 107 109 110 110 112 115 116 116 116 116 119 118 114 115
75 76 77 79 80 85 88 91 92 92 92 92 92 94 94 95 97 99 102 107 112 112 115 113 113 115 116 117 117 117 120 123 125 124 124 124 125 126
80 82 85 87 88 91 95 95 98 102 103 103 103 102 102 104 108 110 110 113 115 113 113 113 115 118 120 122 124 125 125 126 126 128 131 132 133 137
90 91 93 95 98 99 103 101 106 106 105 102 99 103 108 111 116 116 117 117 116 115 118 122 124 126 127 127 129 130 134 135 135 137 137 138 140 139
95 99 101 104 107 108 110 110 106 102 104 104 107 113 119 121 123 126 123 122 122 121 124 127 130 132 131 132 135 135 135 133 129 129 129 128 127 126
104 107 110 113 115 114 107 106 108 108 112 116 119 125 129 132 130 130 128 127 127 125 122 122 126 130 127 123 122 122 122 120 119 120 120 119 118 119
114 116 118 115 116 112 112 115 118 122 125 128 132 135 137 135 132 131 130 124 123 122 121 119 118 119 119 118 117 116 115 116 115 115 112 108 104 103
123 122 120 121 120 122 124 128 132 135 135 136 141 141 136 135 130 124 122 121 119 119 117 115 114 114 113 112 111 111 108 104 101 100 98 97 94 93
123 124 124 126 129 133 134 134 138 140 141 140 138 133 127 125 122 121 119 118 116 113 112 110 109 106 103 100 98 96 96 96 94 94 94 92 91 92
128 130 133 136 138 139 140 142 143 139 134 132 128 124 122 120 119 116 113 110 108 106 104 100 98 96 95 93 92 92 92 92 91 90 88 86 86 86
134 136 139 141 143 145 138 132 130 126 124 122 119 118 116 113 110 108 106 103 98 96 95 93 92 91 91 90 89 88 87 86 85 84 82 79 78 77

GFSNE_250_spd_093.txt.gz
Wind_Speed
52 57 53 51 51 53 57 60 57 56 57 54 52 52 53 54 56 55 52 55 60 62 64 72 75 75 79 71 67 60 52 51 51 52 53 53 52 51
43 51 53 47 50 53 54 55 57 54 53 54 54 57 56 58 60 57 57 63 67 68 74 77 80 79 72 67 55 53 51 50 51 53 55 57 58 58
39 40 43 43 47 47 57 58 57 56 59 59 57 60 61 63 61 60 63 66 71 76 78 81 82 69 60 56 55 56 55 55 60 63 63 62 63 64
38 39 40 41 45 53 54 53 53 49 51 57 60 61 62 62 60 62 67 70 74 77 80 81 68 64 59 60 60 60 62 66 66 66 66 66 67 68
38 41 45 47 49 52 51 51 50 49 49 55 60 60 62 63 65 70 72 77 80 84 77 69 67 64 62 64 65 65 68 71 71 72 71 71 73 74
40 46 48 48 51 50 52 56 56 57 59 60 61 62 65 68 72 76 82 80 72 63 63 64 66 66 68 69 72 75 77 77 78 80 80 82 82 79
43 45 47 48 51 54 54 54 58 65 66 69 68 69 70 73 76 70 63 64 66 67 69 70 70 71 72 75 77 80 79 82 82 84 88 86 87 86
49 52 51 54 55 57 59 60 62 64 64 66 73 75 71 67 65 64 68 71 71 73 75 74 74 75 77 80 80 82 82 82 83 86 88 92 93 92
37 38 39 45 55 61 63 66 68 68 65 63 60 60 62 66 68 71 72 74 74 74 75 77 79 79 80 80 82 84 88 89 91 94 97 99 100 101
44 45 47 48 50 51 52 54 56 58 60 61 63 66 69 70 72 73 73 76 77 79 82 82 83 85 86 89 89 91 94 95 97 100 106 108 110 112
47 51 54 56 58 60 61 62 64 65 67 69 70 71 71 71 74 76 79 83 83 84 83 85 87 89 92 95 96 97 101 105 107 112 116 118 117 118
53 53 56 60 61 63 65 67 67 68 69 71 72 73 74 75 77 78 79 81 83 85 86 89 93 95 96 101 104 106 109 112 118 122 121 119 121 118
59 60 63 64 65 66 66 67 70 73 73 75 75 76 77 76 76 77 81 85 88 90 93 96 98 100 103 107 112 114 116 121 125 127 127 130 129 128
67 64 65 67 71 73 75 76 77 78 78 78 78 81 79 83 85 89 91 93 96 98 100 101 105 107 110 115 119 123 127 130 134 134 135 133 133 134
66 69 70 72 74 76 80 82 83 83 83 83 83 87 88 91 93 95 101 103 104 105 107 110 113 116 121 124 128 133 135 140 137 138 136 137 137 135
73 76 79 80 82 85 86 88 89 89 88 89 94 97 100 104 106 107 107 107 110 113 115 119 124 129 132 136 139 141 144 143 143 142 140 136 134 125
73 80 82 84 89 91 93 94 97 99 98 98 103 106 106 107 108 111 114 118 119 120 124 127 129 139 143 143 148 145 145 144 143 138 134 126 126 124
89 90 89 93 94 97 102 103 103 107 111 114 113 112 114 116 116 119 124 126 129 132 135 138 142 145 149 147 148 148 145 142 136 131 126 118 117 117
100 99 105 99 106 109 110 110 110 109 111 116 119 120 120 122 125 127 131 134 137 140 145 150 146 144 149 150 151 141 138 136 129 126 120 115 110 109
106 108 111 112 114 115 113 112 114 115 117 123 123 127 128 130 132 137 138 143 149 151 153 150 148 150 147 142 141 138 130 126 122 114 108 106 104 103
113 117 117 118 119 121 123 126 128 128 127 129 132 134 136 140 142 144 152 151 150 148 148 149 148 140 138 133 130 128 124 118 112 107 103 99 98 97
120 122 124 124 123 125 122 123 127 130 134 137 139 142 144 148 151 156 160 148 146 149 144 137 138 133 129 127 122 117 112 109 106 102 95 92 88 88
127 130 133 132 132 134 138 143 143 145 145 146 149 152 155 156 160 154 148 145 137 137 136 129 128 125 119 115 110 108 104 101 98 96 93 89 87 83

GFSNE_250_spd_096.txt.gz
Wind_Speed
52 52 53 64 65 60 60 57 54 51 53 55 51 57 59 60 61 58 54 47 48 50 53 54 56 57 61 62 68 71 75 74 68 54 51 49 50 52
44 53 54 54 64 67 66 61 59 57 57 57 59 62 61 60 57 55 52 53 53 56 57 60 58 62 65 67 69 78 78 72 56 54 54 54 55 56
35 42 43 43 40 48 55 57 59 64 66 65 63 63 58 53 54 55 56 56 57 58 59 60 63 67 68 73 79 77 58 59 59 60 58 59 62 63
29 41 50 50 44 42 47 51 57 59 61 62 60 59 55 55 56 55 56 56 58 61 62 65 69 73 75 76 74 63 63 62 64 65 65 65 66 67
34 33 38 41 41 44 44 48 52 54 53 56 55 53 55 55 53 54 57 59 61 63 67 69 74 75 77 72 63 64 66 66 66 67 67 68 69 69
38 37 38 39 42 45 48 51 50 52 54 55 55 56 56 55 57 59 62 65 67 66 70 74 77 76 66 66 67 70 70 68 69 69 68 68 68 69
39 38 41 43 46 48 48 50 50 53 53 53 55 58 58 59 62 65 68 69 69 72 77 74 65 66 69 70 69 70 71 72 73 73 75 77 79 81
47 49 48 47 49 51 53 54 56 58 60 59 58 58 61 61 62 66 69 71 74 67 64 66 67 68 70 72 73 75 76 76 78 80 81 82 83 84
45 48 50 52 51 52 54 55 56 58 58 58 59 61 65 68 70 68 66 65 65 66 68 69 71 73 75 75 74 76 78 81 84 83 85 87 91 95
37 40 42 43 46 49 54 57 59 62 63 64 64 63 63 61 63 65 66 68 70 71 73 76 74 73 73 75 75 77 79 83 86 88 91 93 96 100
41 41 43 45 47 49 52 53 55 57 58 60 61 62 62 64 67 68 69 71 73 75 74 76 75 76 80 81 82 85 88 92 93 96 99 102 106 108
47 49 49 49 51 53 54 56 59 60 61 62 64 65 67 67 69 69 70 73 77 77 80 82 85 84 85 88 89 94 98 99 102 105 107 111 115 117
53 53 55 56 57 58 59 62 64 66 66 67 70 71 72 73 75 76 79 79 82 84 86 86 86 89 93 95 99 103 107 108 108 110 113 116 120 126
61 62 64 66 67 67 67 67 69 69 71 74 76 77 79 80 81 82 83 86 86 87 87 90 92 97 102 104 106 109 108 111 114 118 121 126 133 139
68 70 68 69 70 73 75 75 74 75 76 77 76 78 81 83 84 84 86 89 92 94 95 97 102 106 111 110 111 114 120 123 124 126 132 137 140 151
66 69 67 70 75 71 73 75 75 77 81 81 83 86 87 91 89 91 92 95 100 101 104 108 112 113 114 116 121 125 129 128 132 138 139 144 151 162
68 67 67 65 70 73 73 83 85 85 85 87 89 96 95 97 100 105 107 108 108 112 113 115 119 121 124 126 130 135 132 137 141 145 150 153 162 168
75 73 73 76 81 85 81 94 96 94 95 98 99 102 104 108 111 113 116 118 119 121 123 124 127 129 133 135 139 142 144 145 149 154 161 167 165 163
83 82 81 82 87 99 102 106 103 103 103 104 104 109 115 115 116 119 121 124 126 129 130 129 130 133 136 147 147 148 151 154 158 162 167 156 156 145
92 88 91 93 95 100 105 110 113 114 114 114 115 117 120 122 123 126 127 131 135 137 136 141 142 145 145 150 154 156 159 159 165 158 154 140 133 129
98 98 101 104 106 108 109 113 116 117 117 119 122 126 128 131 134 135 136 139 142 142 145 149 151 153 155 155 156 159 162 158 157 141 130 126 121 117
108 109 108 110 114 118 121 121 122 122 125 126 127 129 132 136 138 141 143 144 148 152 153 152 153 154 156 160 163 158 158 146 132 121 113 108 104 102
117 117 118 121 123 124 124 125 127 130 132 133 136 138 139 139 142 144 146 148 149 151 155 157 160 162 159 157 150 140 129 123 114 111 102 97 95 92

GFSNE_250_spd_102.txt.gz
Wind_Speed
41 40 45 51 52 53 51 55 59 66 62 64 64 61 61 57 54 52 50 47 51 51 55 56 57 52 50 54 52 54 54 51 49 48 52 55 57 57
42 42 44 49 52 53 53 55 54 59 63 63 63 63 62 63 60 53 53 52 52 54 57 56 57 58 59 59 60 62 58 55 51 53 56 59 59 59
40 38 42 47 53 50 54 57 56 56 56 62 64 62 58 57 59 57 57 55 55 56 57 57 58 58 57 62 59 57 55 54 55 54 57 60 60 57
35 37 41 41 46 48 51 57 60 60 57 58 60 59 60 63 61 62 64 62 60 61 63 64 62 60 61 64 60 62 56 56 58 60 61 60 58 57
32 34 35 36 39 47 58 58 62 65 61 61 64 65 64 64 66 66 66 67 67 67 66 60 62 63 63 62 59 59 63 62 63 62 61 61 59 62
31 33 32 31 34 37 40 50 58 65 61 62 59 56 60 66 66 64 63 62 61 64 62 62 63 63 62 64 66 66 65 64 62 62 61 60 65 66
30 31 28 34 33 32 38 33 40 54 59 59 58 56 63 63 63 63 63 62 62 61 61 63 65 64 66 67 65 65 66 64 62 62 63 66 67 68
33 30 30 34 37 36 32 33 38 43 48 47 56 55 61 58 65 64 63 64 64 64 66 67 67 67 66 68 68 67 67 66 64 68 69 71 71 72
36 33 34 39 38 40 41 41 43 46 52 56 60 67 68 68 69 69 67 70 68 70 69 70 68 70 71 73 72 69 67 69 71 73 73 73 74 75
40 38 39 42 44 46 48 50 52 54 56 61 66 66 69 72 70 70 71 72 70 69 71 72 75 76 73 70 68 71 74 74 76 76 75 76 79 81
44 42 42 46 49 50 51 56 57 57 59 62 63 66 69 68 67 68 70 72 73 74 76 79 78 73 73 75 75 76 78 80 81 81 84 86 88 91
51 48 46 46 48 54 57 59 62 64 64 65 65 65 68 71 74 75 76 79 80 79 78 78 78 78 78 78 80 81 82 84 87 91 94 96 97 99
57 56 54 53 53 54 56 57 59 63 67 70 73 74 75 78 80 80 79 78 76 75 76 77 79 81 82 83 85 88 90 92 95 97 98 100 104 101
65 65 64 63 62 61 60 60 60 61 63 64 65 66 68 69 71 71 72 75 75 77 79 82 86 86 86 88 88 92 94 96 99 99 101 102 100 103
71 72 73 71 71 69 68 69 69 70 70 71 72 73 74 75 76 78 80 82 84 84 86 91 91 92 93 93 91 96 101 102 105 108 106 106 108 109
77 77 78 79 80 79 78 79 79 79 80 81 83 83 84 84 86 87 87 88 90 91 94 96 97 97 100 100 103 104 107 107 110 112 113 115 116 119
83 83 85 85 87 88 89 89 89 90 90 91 92 91 92 93 93 92 92 93 94 97 99 100 104 106 106 110 113 113 114 115 115 116 120 121 126 127
91 90 90 91 92 93 95 96 97 98 97 99 99 98 99 100 100 100 101 103 104 107 107 109 112 113 116 118 118 118 118 118 120 122 124 126 132 136
97 93 94 96 97 98 98 99 100 100 102 106 108 107 106 105 105 107 107 108 109 110 113 114 116 120 122 119 119 122 123 124 127 129 130 133 137 143
98 101 103 105 108 108 109 110 111 110 110 109 110 111 111 111 112 112 113 115 117 119 119 121 121 121 122 124 128 129 130 131 132 135 137 140 143 148
103 104 107 107 108 111 114 116 118 117 119 118 119 119 119 119 120 122 122 123 122 122 123 124 126 127 128 132 134 135 136 136 138 140 142 144 147 151
108 108 108 109 110 112 116 119 122 123 124 125 126 127 129 129 128 128 128 128 127 127 129 129 130 132 133 135 137 139 142 144 143 143 146 145 149 154
107 111 114 115 117 118 119 119 120 122 123 125 126 127 129 129 130 130 131 131 131 133 133 134 135 137 138 142 141 142 144 145 148 148 146 149 151 146